Location: Aufkirchen
(47.9603°N, 11.3653°E)
Time: 11:48:10
(UTC+01:00)

Tiros 1 - Pass Details

Date: 05 December 2020
Orbit: 630 x 663 km, 48.4° (Epoch: 21 January)

Event Time Altitude Azimuth Distance (km) Brightness Sun altitude
Rises 15:22:17 0° 264° (W) 2,992 11.5 6.9°
Reaches altitude 10° 15:24:38 10° 264° (W) 2,080 10.7 6.6°
Maximum altitude 15:29:27 86° 353° (N) 668 7.4 6.1°
Drops below altitude 10° 15:34:16 10° 84° (E) 2,074 9.3 5.5°
Sets 15:36:36 0° 85° (E) 2,982 10.1 5.2°
